Location: Unspecified
(0.0000°N, 0.0000°E)
Time: 02:28:49
(UTC+00:00)

YAOGAN-43 02C - Visible Passes

Search period start: 10 October 2024 00:00
Search period end: 20 October 2024 00:00
Orbit: 492 x 499 km, 35.0° (Epoch: 09 October)

Date Brightness Start Highest point End Pass type
(mag) Time Alt. Az. Time Alt. Az. Time Alt. Az.
10 Oct ? 04:13:46 10° SSE 04:15:13 12° SE 04:16:39 10° ESE visible
11 Oct ? 03:50:16 12° SSE 03:51:00 13° SE 03:52:48 10° ESE visible
12 Oct ? 03:28:18 12° ESE 03:28:18 12° ESE 03:28:49 10° ESE visible
12 Oct ? 05:02:50 11° WSW 05:06:28 56° NW 05:10:14 10° NE visible
13 Oct ? 04:40:51 34° W 04:42:08 50° NW 04:45:52 10° NE visible
14 Oct ? 04:18:45 36° N 04:18:45 36° N 04:21:26 10° NE visible
15 Oct ? 03:56:31 13° NNE 03:56:31 13° NNE 03:56:58 10° NE visible
